| time (UTC) | temp C | wind direction | speed KPH | gust KPH | rain 1hr cm | rain 24hr cm | rain mn cm | humidity % | barometer mb |
| 20260507070538 | 11 | 293 | 0.0 | 3.2 | 0.00 | 0.00 | 0.00 | 73 | 1011.1 |
| 20260507070051 | 11 | 294 | 0.0 | 3.2 | 0.00 | 0.00 | 0.00 | 72 | 1011.2 |
| 20260507065540 | 11 | 0 | 0.0 | 3.2 | 0.00 | 0.00 | 0.00 | 73 | 1011.2 |
| 20260507065037 | 11 | 282 | 0.0 | 4.8 | 0.00 | 0.00 | 0.00 | 73 | 1011.1 |
| 20260507064552 | 11 | 0 | 0.0 | 4.8 | 0.00 | 0.00 | 0.00 | 74 | 1011.2 |
| 20260507064040 | 11 | 84 | 0.0 | 6.4 | 0.00 | 0.00 | 0.00 | 76 | 1011.0 |
| 20260507063538 | 11 | 55 | 1.6 | 6.4 | 0.00 | 0.00 | 0.00 | 75 | 1011.1 |
| 20260507063053 | 11 | 88 | 0.0 | 6.4 | 0.00 | 0.00 | 0.00 | 76 | 1011.3 |
| 20260507062538 | 11 | 290 | 1.6 | 8.0 | 0.00 | 0.00 | 0.00 | 77 | 1011.1 |
| 20260507062038 | 11 | 0 | 1.6 | 8.0 | 0.00 | 0.00 | 0.00 | 78 | 1011.1 |
| 20260507061547 | 11 | 247 | 0.0 | 3.2 | 0.00 | 0.00 | 0.00 | 79 | 1011.2 |
| 20260507061040 | 11 | 220 | 0.0 | 4.8 | 0.00 | 0.00 | 0.00 | 80 | 1011.1 |
| 20260507060538 | 11 | 184 | 0.0 | 4.8 | 0.00 | 0.00 | 0.00 | 79 | 1011.0 |
| 20260507060100 | 11 | 315 | 0.0 | 6.4 | 0.00 | 0.00 | 0.00 | 80 | 1011.1 |
| 20260507055538 | 11 | 85 | 0.0 | 6.4 | 0.00 | 0.00 | 0.00 | 80 | 1011.0 |
| 20260507055039 | 11 | 63 | 1.6 | 6.4 | 0.00 | 0.00 | 0.00 | 81 | 1011.0 |
| 20260507054549 | 11 | 88 | 0.0 | 4.8 | 0.00 | 0.00 | 0.00 | 81 | 1011.0 |
| 20260507054040 | 11 | 78 | 0.0 | 4.8 | 0.00 | 0.00 | 0.00 | 82 | 1011.0 |
| 20260507053538 | 11 | 53 | 1.6 | 4.8 | 0.00 | 0.00 | 0.00 | 82 | 1010.8 |
| 20260507053049 | 11 | 73 | 1.6 | 4.8 | 0.00 | 0.00 | 0.00 | 82 | 1010.7 |
| 20260507052544 | 11 | 0 | 1.6 | 8.0 | 0.00 | 0.00 | 0.00 | 82 | 1010.7 |
| 20260507052038 | 11 | 78 | 0.0 | 8.0 | 0.00 | 0.00 | 0.00 | 83 | 1010.8 |
| 20260507051546 | 11 | 0 | 1.6 | 6.4 | 0.00 | 0.00 | 0.00 | 84 | 1011.0 |
| 20260507051037 | 11 | 9 | 0.0 | 4.8 | 0.00 | 0.00 | 0.00 | 83 | 1011.1 |
| 20260507050537 | 11 | 63 | 1.6 | 4.8 | 0.00 | 0.00 | 0.00 | 83 | 1010.9 |
| 20260507050046 | 12 | 81 | 1.6 | 4.8 | 0.00 | 0.00 | 0.00 | 83 | 1010.8 |
| 20260507045540 | 12 | 84 | 1.6 | 4.8 | 0.00 | 0.00 | 0.00 | 82 | 1010.7 |
| 20260507045037 | 12 | 270 | 1.6 | 4.8 | 0.00 | 0.00 | 0.00 | 82 | 1010.9 |
| 20260507044555 | 12 | 94 | 0.0 | 3.2 | 0.00 | 0.00 | 0.00 | 82 | 1011.0 |
| 20260507044037 | 12 | 318 | 0.0 | 4.8 | 0.00 | 0.00 | 0.00 | 82 | 1011.1 |
| 20260507043532 | 12 | 283 | 0.0 | 4.8 | 0.00 | 0.00 | 0.00 | 82 | 1011.2 |
| 20260507043101 | 12 | 56 | 0.0 | 4.8 | 0.00 | 0.00 | 0.00 | 81 | 1010.9 |
| 20260507042536 | 12 | 59 | 0.0 | 6.4 | 0.00 | 0.00 | 0.00 | 80 | 1010.9 |
| 20260507042039 | 12 | 265 | 1.6 | 6.4 | 0.00 | 0.00 | 0.00 | 80 | 1010.9 |
| 20260507041554 | 12 | 75 | 1.6 | 6.4 | 0.00 | 0.00 | 0.00 | 80 | 1010.7 |
| 20260507041033 | 12 | 109 | 1.6 | 6.4 | 0.00 | 0.00 | 0.00 | 79 | 1010.7 |
| 20260507040535 | 12 | 242 | 0.0 | 6.4 | 0.00 | 0.00 | 0.00 | 79 | 1010.8 |
| 20260507040047 | 12 | 25 | 1.6 | 6.4 | 0.00 | 0.00 | 0.00 | 79 | 1010.8 |
| 20260507035535 | 12 | 86 | 0.0 | 3.2 | 0.00 | 0.00 | 0.00 | 79 | 1010.8 |
| 20260507035036 | 12 | 283 | 1.6 | 3.2 | 0.00 | 0.00 | 0.00 | 79 | 1010.9 |
| 20260507034549 | 12 | 110 | 0.0 | 4.8 | 0.00 | 0.00 | 0.00 | 79 | 1010.6 |
| 20260507034034 | 12 | 360 | 1.6 | 4.8 | 0.00 | 0.00 | 0.00 | 79 | 1011.0 |
| 20260507033535 | 13 | 34 | 0.0 | 4.8 | 0.00 | 0.00 | 0.00 | 79 | 1010.7 |
| 20260507033047 | 13 | 0 | 0.0 | 6.4 | 0.00 | 0.00 | 0.00 | 78 | 1010.9 |
| 20260507032533 | 13 | 0 | 1.6 | 6.4 | 0.00 | 0.00 | 0.00 | 78 | 1010.7 |
| 20260507032036 | 13 | 15 | 3.2 | 6.4 | 0.00 | 0.00 | 0.00 | 78 | 1010.2 |
| 20260507031547 | 13 | 74 | 1.6 | 9.7 | 0.00 | 0.00 | 0.00 | 78 | 1010.3 |
| 20260507031036 | 13 | 84 | 3.2 | 12.9 | 0.00 | 0.00 | 0.00 | 78 | 1010.6 |
| 20260507030538 | 13 | 76 | 1.6 | 12.9 | 0.00 | 0.00 | 0.00 | 78 | 1010.7 |
| 20260507030047 | 13 | 40 | 1.6 | 12.9 | 0.00 | 0.00 | 0.00 | 77 | 1010.5 |
| 20260507025534 | 13 | 92 | 1.6 | 12.9 | 0.00 | 0.00 | 0.00 | 77 | 1010.7 |
| 20260507025040 | 13 | 70 | 1.6 | 12.9 | 0.00 | 0.00 | 0.00 | 77 | 1010.6 |
| 20260507024551 | 13 | 44 | 4.8 | 12.9 | 0.00 | 0.00 | 0.00 | 77 | 1010.5 |
| 20260507024036 | 14 | 71 | 3.2 | 9.7 | 0.00 | 0.00 | 0.00 | 77 | 1010.6 |
| 20260507023535 | 14 | 79 | 1.6 | 4.8 | 0.00 | 0.00 | 0.00 | 75 | 1010.6 |
| 20260507023102 | 14 | 0 | 0.0 | 9.7 | 0.00 | 0.00 | 0.00 | 74 | 1010.5 |
| 20260507022536 | 14 | 269 | 1.6 | 9.7 | 0.00 | 0.00 | 0.00 | 74 | 1010.4 |
| 20260507022038 | 14 | 269 | 1.6 | 11.3 | 0.00 | 0.00 | 0.00 | 74 | 1010.2 |
| 20260507021548 | 14 | 263 | 3.2 | 11.3 | 0.00 | 0.00 | 0.00 | 74 | 1010.3 |
| 20260507021036 | 15 | 277 | 3.2 | 11.3 | 0.00 | 0.00 | 0.00 | 74 | 1010.1 |
| 20260507020535 | 15 | 292 | 1.6 | 8.0 | 0.00 | 0.00 | 0.00 | 75 | 1010.2 |
| 20260507020050 | 15 | 158 | 1.6 | 9.7 | 0.00 | 0.00 | 0.00 | 75 | 1010.2 |
| 20260507015535 | 15 | 291 | 1.6 | 9.7 | 0.00 | 0.00 | 0.00 | 75 | 1010.3 |
| 20260507015035 | 15 | 240 | 3.2 | 6.4 | 0.00 | 0.00 | 0.00 | 74 | 1010.4 |
| 20260507014547 | 15 | 301 | 1.6 | 11.3 | 0.00 | 0.00 | 0.00 | 75 | 1010.3 |
| 20260507014035 | 15 | 259 | 1.6 | 11.3 | 0.00 | 0.00 | 0.00 | 74 | 1010.4 |
| 20260507013534 | 15 | 309 | 1.6 | 11.3 | 0.00 | 0.00 | 0.00 | 74 | 1010.6 |
| 20260507013047 | 15 | 278 | 3.2 | 9.7 | 0.00 | 0.00 | 0.00 | 74 | 1010.4 |
| 20260507012540 | 15 | 279 | 1.6 | 14.5 | 0.00 | 0.00 | 0.00 | 74 | 1010.3 |
| 20260507012038 | 15 | 268 | 3.2 | 14.5 | 0.00 | 0.00 | 0.00 | 74 | 1010.4 |
| 20260507011551 | 15 | 234 | 3.2 | 14.5 | 0.00 | 0.00 | 0.00 | 74 | 1010.3 |
| 20260507011034 | 15 | 259 | 3.2 | 11.3 | 0.00 | 0.00 | 0.00 | 74 | 1010.3 |
| 20260507010537 | 15 | 315 | 3.2 | 6.4 | 0.00 | 0.00 | 0.00 | 74 | 1010.2 |
| 20260507010047 | 15 | 294 | 3.2 | 6.4 | 0.00 | 0.00 | 0.00 | 75 | 1010.0 |
| 20260507005540 | 15 | 296 | 1.6 | 6.4 | 0.00 | 0.00 | 0.00 | 75 | 1010.2 |
| 20260507005039 | 15 | 227 | 1.6 | 8.0 | 0.00 | 0.00 | 0.00 | 74 | 1010.1 |
| 20260507004550 | 16 | 321 | 3.2 | 8.0 | 0.00 | 0.00 | 0.00 | 74 | 1009.8 |
| 20260507004038 | 16 | 282 | 1.6 | 6.4 | 0.00 | 0.00 | 0.00 | 74 | 1009.8 |
| 20260507003538 | 16 | 284 | 3.2 | 8.0 | 0.00 | 0.00 | 0.00 | 74 | 1009.8 |
| 20260507003056 | 16 | 267 | 3.2 | 8.0 | 0.00 | 0.00 | 0.00 | 74 | 1009.8 |
| 20260507002535 | 16 | 11 | 1.6 | 9.7 | 0.00 | 0.00 | 0.00 | 75 | 1009.5 |
| 20260507002038 | 16 | 342 | 1.6 | 9.7 | 0.00 | 0.00 | 0.00 | 75 | 1009.3 |
| 20260507001613 | 16 | 0 | 0.0 | 4.8 | 0.00 | 0.00 | 0.00 | 75 | 1009.3 |
| 20260507001037 | 16 | 258 | 1.6 | 8.0 | 0.00 | 0.00 | 0.00 | 76 | 1009.3 |
| 20260507000541 | 16 | 126 | 1.6 | 8.0 | 0.00 | 0.00 | 0.00 | 76 | 1009.1 |
| 20260507000055 | 16 | 287 | 1.6 | 4.8 | 0.00 | 0.00 | 0.00 | 76 | 1008.9 |
| 20260506235538 | 16 | 311 | 1.6 | 6.4 | 0.00 | 0.00 | 0.00 | 77 | 1008.9 |
| 20260506235037 | 16 | 265 | 1.6 | 6.4 | 0.00 | 0.00 | 0.00 | 77 | 1008.8 |
| 20260506234555 | 16 | 336 | 1.6 | 8.0 | 0.00 | 0.00 | 0.00 | 77 | 1008.6 |
| 20260506234038 | 17 | 321 | 1.6 | 8.0 | 0.00 | 0.00 | 0.00 | 76 | 1008.5 |
| 20260506233538 | 17 | 246 | 3.2 | 12.9 | 0.00 | 0.00 | 0.00 | 77 | 1008.4 |
| 20260506233045 | 17 | 294 | 3.2 | 12.9 | 0.00 | 0.00 | 0.00 | 77 | 1008.2 |
| 20260506232537 | 17 | 235 | 1.6 | 6.4 | 0.00 | 0.00 | 0.00 | 78 | 1008.2 |
| 20260506232035 | 17 | 274 | 1.6 | 6.4 | 0.00 | 0.00 | 0.00 | 79 | 1008.3 |
| 20260506231545 | 17 | 246 | 1.6 | 8.0 | 0.00 | 0.00 | 0.00 | 79 | 1008.3 |
| 20260506231037 | 17 | 344 | 3.2 | 12.9 | 0.00 | 0.00 | 0.00 | 79 | 1008.4 |
| 20260506230538 | 17 | 261 | 3.2 | 12.9 | 0.00 | 0.00 | 0.00 | 80 | 1008.1 |
| 20260506230104 | 17 | 303 | 4.8 | 12.9 | 0.00 | 0.00 | 0.00 | 81 | 1008.1 |
| 20260506225538 | 18 | 318 | 1.6 | 4.8 | 0.00 | 0.00 | 0.00 | 84 | 1008.1 |
| 20260506225038 | 18 | 299 | 0.0 | 3.2 | 0.00 | 0.00 | 0.00 | 85 | 1008.1 |
| 20260506224547 | 18 | 294 | 0.0 | 3.2 | 0.00 | 0.00 | 0.00 | 85 | 1008.1 |
| 20260506224037 | 18 | 291 | 0.0 | 3.2 | 0.00 | 0.00 | 0.00 | 85 | 1008.1 |
| 20260506223539 | 18 | 317 | 0.0 | 4.8 | 0.00 | 0.00 | 0.00 | 85 | 1008.0 |
| 20260506223044 | 18 | 0 | 0.0 | 4.8 | 0.00 | 0.00 | 0.00 | 85 | 1007.8 |
| 20260506222535 | 18 | 250 | 1.6 | 4.8 | 0.00 | 0.00 | 0.00 | 85 | 1007.8 |
| 20260506222039 | 18 | 279 | 1.6 | 4.8 | 0.00 | 0.00 | 0.00 | 84 | 1007.8 |
| 20260506221603 | 18 | 244 | 0.0 | 4.8 | 0.00 | 0.00 | 0.00 | 84 | 1007.7 |
| 20260506221037 | 18 | 242 | 1.6 | 4.8 | 0.00 | 0.00 | 0.00 | 84 | 1007.7 |
| 20260506220538 | 18 | 234 | 1.6 | 6.4 | 0.00 | 0.00 | 0.00 | 83 | 1007.6 |
| 20260506220048 | 18 | 247 | 1.6 | 6.4 | 0.00 | 0.00 | 0.00 | 83 | 1007.7 |
| 20260506215542 | 18 | 252 | 3.2 | 8.0 | 0.00 | 0.00 | 0.00 | 82 | 1007.5 |
| 20260506215038 | 18 | 252 | 3.2 | 11.3 | 0.00 | 0.00 | 0.00 | 82 | 1007.5 |
| 20260506214554 | 18 | 282 | 3.2 | 11.3 | 0.00 | 0.00 | 0.00 | 82 | 1007.4 |
| 20260506214038 | 18 | 239 | 3.2 | 11.3 | 0.00 | 0.00 | 0.00 | 81 | 1007.4 |
| 20260506213540 | 18 | 219 | 4.8 | 8.0 | 0.00 | 0.00 | 0.00 | 81 | 1007.2 |
| 20260506213048 | 18 | 250 | 0.0 | 4.8 | 0.00 | 0.00 | 0.00 | 82 | 1007.2 |
| 20260506212538 | 18 | 259 | 0.0 | 4.8 | 0.00 | 0.00 | 0.00 | 82 | 1007.1 |
| 20260506212039 | 18 | 266 | 1.6 | 8.0 | 0.00 | 0.00 | 0.00 | 81 | 1007.1 |
| 20260506211554 | 19 | 230 | 1.6 | 8.0 | 0.00 | 0.00 | 0.00 | 81 | 1007.1 |
| 20260506211035 | 19 | 246 | 0.0 | 6.4 | 0.00 | 0.00 | 0.00 | 81 | 1006.8 |
| 20260506210539 | 19 | 0 | 1.6 | 6.4 | 0.00 | 0.00 | 0.00 | 81 | 1006.9 |
| 20260506210054 | 19 | 249 | 1.6 | 6.4 | 0.00 | 0.00 | 0.00 | 80 | 1007.0 |
| 20260506205537 | 19 | 252 | 1.6 | 4.8 | 0.00 | 0.00 | 0.00 | 81 | 1007.0 |
| 20260506205037 | 19 | 5 | 1.6 | 9.7 | 0.00 | 0.00 | 0.00 | 81 | 1007.0 |
| 20260506204547 | 19 | 285 | 1.6 | 9.7 | 0.00 | 0.00 | 0.00 | 81 | 1007.0 |
| 20260506204034 | 19 | 291 | 3.2 | 4.8 | 0.00 | 0.00 | 0.00 | 81 | 1006.9 |
| 20260506203538 | 19 | 252 | 1.6 | 6.4 | 0.00 | 0.00 | 0.00 | 81 | 1006.9 |
| 20260506203102 | 19 | 219 | 1.6 | 6.4 | 0.00 | 0.00 | 0.00 | 81 | 1007.0 |
| 20260506202538 | 19 | 252 | 1.6 | 8.0 | 0.00 | 0.00 | 0.00 | 81 | 1006.9 |
| 20260506202038 | 19 | 263 | 1.6 | 8.0 | 0.00 | 0.00 | 0.00 | 81 | 1006.9 |
| 20260506201551 | 19 | 223 | 3.2 | 8.0 | 0.00 | 0.00 | 0.00 | 82 | 1006.9 |
| 20260506201037 | 18 | 214 | 3.2 | 6.4 | 0.00 | 0.00 | 0.00 | 82 | 1007.0 |
| 20260506200544 | 18 | 234 | 1.6 | 14.5 | 0.00 | 0.00 | 0.00 | 82 | 1006.9 |
| 20260506200054 | 18 | 296 | 3.2 | 14.5 | 0.00 | 0.00 | 0.00 | 82 | 1007.0 |
| 20260506195538 | 18 | 283 | 3.2 | 8.0 | 0.00 | 0.00 | 0.00 | 84 | 1006.9 |
| 20260506195038 | 18 | 257 | 1.6 | 14.5 | 0.00 | 0.00 | 0.00 | 83 | 1007.1 |
| 20260506194546 | 18 | 254 | 1.6 | 14.5 | 0.00 | 0.00 | 0.00 | 84 | 1007.2 |
| 20260506194038 | 18 | 211 | 3.2 | 14.5 | 0.00 | 0.00 | 0.00 | 84 | 1007.2 |
| 20260506193537 | 18 | 215 | 1.6 | 12.9 | 0.00 | 0.00 | 0.00 | 84 | 1007.2 |
| 20260506193054 | 18 | 246 | 3.2 | 12.9 | 0.00 | 0.00 | 0.00 | 84 | 1007.2 |
| 20260506192534 | 18 | 318 | 1.6 | 11.3 | 0.00 | 0.00 | 0.00 | 85 | 1007.2 |
| 20260506192038 | 17 | 232 | 1.6 | 11.3 | 0.00 | 0.00 | 0.00 | 85 | 1007.2 |
| 20260506191546 | 17 | 217 | 1.6 | 11.3 | 0.00 | 0.00 | 0.00 | 86 | 1007.2 |
| 20260506191035 | 17 | 249 | 1.6 | 6.4 | 0.00 | 0.00 | 0.00 | 86 | 1007.2 |
| 20260506190536 | 17 | 287 | 3.2 | 6.4 | 0.00 | 0.00 | 0.00 | 86 | 1007.3 |
| 20260506190051 | 17 | 330 | 1.6 | 6.4 | 0.00 | 0.00 | 0.00 | 87 | 1007.3 |
| 20260506185534 | 17 | 236 | 1.6 | 6.4 | 0.00 | 0.00 | 0.00 | 88 | 1007.4 |
| 20260506185034 | 17 | 255 | 3.2 | 6.4 | 0.00 | 0.00 | 0.00 | 88 | 1007.3 |
| 20260506184549 | 17 | 206 | 1.6 | 6.4 | 0.00 | 0.00 | 0.00 | 89 | 1007.3 |
| 20260506184035 | 17 | 276 | 1.6 | 6.4 | 0.00 | 0.00 | 0.00 | 88 | 1007.5 |
| 20260506183534 | 16 | 217 | 3.2 | 8.0 | 0.00 | 0.00 | 0.00 | 88 | 1007.6 |
| 20260506183048 | 16 | 245 | 1.6 | 8.0 | 0.00 | 0.00 | 0.00 | 88 | 1007.6 |
| 20260506182533 | 16 | 247 | 3.2 | 8.0 | 0.00 | 0.00 | 0.00 | 89 | 1007.6 |
| 20260506182037 | 16 | 344 | 1.6 | 4.8 | 0.00 | 0.00 | 0.00 | 89 | 1007.6 |
| 20260506181553 | 16 | 279 | 1.6 | 4.8 | 0.00 | 0.00 | 0.00 | 89 | 1007.6 |
| 20260506181035 | 16 | 265 | 1.6 | 6.4 | 0.00 | 0.00 | 0.00 | 89 | 1007.7 |
| 20260506180538 | 16 | 279 | 3.2 | 9.7 | 0.00 | 0.00 | 0.00 | 89 | 1007.7 |
| 20260506180050 | 16 | 254 | 3.2 | 9.7 | 0.00 | 0.00 | 0.00 | 89 | 1007.7 |
| 20260506175535 | 16 | 248 | 3.2 | 11.3 | 0.00 | 0.00 | 0.00 | 90 | 1007.7 |
| 20260506175034 | 16 | 183 | 3.2 | 11.3 | 0.00 | 0.00 | 0.00 | 90 | 1007.7 |
| 20260506174545 | 16 | 209 | 1.6 | 11.3 | 0.00 | 0.00 | 0.00 | 90 | 1007.7 |
| 20260506174035 | 16 | 246 | 4.8 | 11.3 | 0.00 | 0.00 | 0.00 | 90 | 1007.7 |
| 20260506173535 | 16 | 275 | 3.2 | 16.1 | 0.00 | 0.00 | 0.00 | 90 | 1007.7 |
| 20260506173059 | 16 | 255 | 3.2 | 16.1 | 0.00 | 0.00 | 0.00 | 90 | 1007.6 |
| 20260506172534 | 16 | 254 | 3.2 | 9.7 | 0.00 | 0.00 | 0.00 | 90 | 1007.7 |
| 20260506172034 | 16 | 254 | 3.2 | 9.7 | 0.00 | 0.00 | 0.00 | 90 | 1007.7 |
| 20260506171554 | 16 | 248 | 3.2 | 11.3 | 0.00 | 0.00 | 0.00 | 90 | 1007.7 |
| 20260506171035 | 16 | 240 | 3.2 | 11.3 | 0.00 | 0.00 | 0.00 | 90 | 1007.6 |
| 20260506170537 | 16 | 256 | 4.8 | 11.3 | 0.00 | 0.00 | 0.00 | 90 | 1007.6 |
| 20260506165535 | 16 | 227 | 3.2 | 14.5 | 0.00 | 0.00 | 0.00 | 91 | 1007.7 |
| 20260506165035 | 15 | 259 | 4.8 | 14.5 | 0.00 | 0.00 | 0.00 | 91 | 1007.7 |
| 20260506164555 | 15 | 244 | 3.2 | 8.0 | 0.00 | 0.00 | 0.00 | 91 | 1007.7 |
| 20260506164034 | 15 | 215 | 3.2 | 8.0 | 0.00 | 0.00 | 0.00 | 91 | 1007.7 |
| 20260506163533 | 15 | 236 | 1.6 | 6.4 | 0.00 | 0.00 | 0.00 | 92 | 1007.7 |
| 20260506163051 | 15 | 251 | 3.2 | 8.0 | 0.00 | 0.00 | 0.00 | 92 | 1007.7 |
| 20260506162537 | 15 | 224 | 3.2 | 14.5 | 0.00 | 0.00 | 0.00 | 92 | 1007.7 |
| 20260506162036 | 15 | 201 | 3.2 | 14.5 | 0.00 | 0.00 | 0.00 | 92 | 1007.7 |
| 20260506161547 | 15 | 202 | 1.6 | 9.7 | 0.00 | 0.00 | 0.00 | 92 | 1007.7 |
| 20260506161034 | 15 | 207 | 3.2 | 9.7 | 0.00 | 0.00 | 0.00 | 92 | 1007.8 |
| 20260506160534 | 15 | 213 | 1.6 | 6.4 | 0.00 | 0.00 | 0.00 | 92 | 1007.9 |
| 20260506160055 | 15 | 211 | 1.6 | 6.4 | 0.00 | 0.00 | 0.00 | 92 | 1007.8 |
| 20260506155534 | 15 | 212 | 1.6 | 6.4 | 0.00 | 0.00 | 0.00 | 92 | 1007.8 |
| 20260506155034 | 15 | 237 | 0.0 | 3.2 | 0.00 | 0.00 | 0.00 | 92 | 1007.9 |
| 20260506154552 | 15 | 204 | 1.6 | 4.8 | 0.00 | 0.00 | 0.00 | 92 | 1007.8 |
| 20260506154034 | 15 | 230 | 1.6 | 4.8 | 0.00 | 0.00 | 0.00 | 92 | 1007.8 |
| 20260506153539 | 15 | 254 | 1.6 | 8.0 | 0.00 | 0.00 | 0.00 | 92 | 1007.8 |
| 20260506153045 | 15 | 263 | 3.2 | 8.0 | 0.00 | 0.00 | 0.00 | 92 | 1007.7 |
| 20260506152534 | 15 | 179 | 3.2 | 11.3 | 0.00 | 0.00 | 0.00 | 92 | 1007.7 |
| 20260506152036 | 15 | 191 | 4.8 | 11.3 | 0.00 | 0.00 | 0.00 | 92 | 1007.6 |
| 20260506151548 | 15 | 209 | 3.2 | 6.4 | 0.00 | 0.00 | 0.00 | 92 | 1007.7 |
| 20260506151033 | 15 | 238 | 3.2 | 6.4 | 0.00 | 0.00 | 0.00 | 92 | 1007.7 |
| 20260506150536 | 15 | 213 | 3.2 | 6.4 | 0.00 | 0.00 | 0.00 | 92 | 1007.9 |
| 20260506150100 | 15 | 232 | 3.2 | 11.3 | 0.00 | 0.00 | 0.00 | 91 | 1007.9 |
| 20260506145537 | 15 | 239 | 3.2 | 11.3 | 0.00 | 0.00 | 0.00 | 91 | 1008.0 |
| 20260506145036 | 15 | 244 | 3.2 | 11.3 | 0.00 | 0.00 | 0.00 | 91 | 1008.1 |
| 20260506144547 | 15 | 192 | 3.2 | 9.7 | 0.00 | 0.00 | 0.00 | 91 | 1008.3 |
| 20260506144036 | 15 | 182 | 3.2 | 19.3 | 0.00 | 0.00 | 0.00 | 91 | 1008.6 |
| 20260506143536 | 15 | 254 | 3.2 | 19.3 | 0.00 | 0.00 | 0.00 | 90 | 1008.7 |
| 20260506143045 | 15 | 181 | 3.2 | 8.0 | 0.00 | 0.00 | 0.00 | 90 | 1008.8 |
| 20260506142537 | 15 | 0 | 1.6 | 6.4 | 0.00 | 0.00 | 0.00 | 90 | 1008.7 |
| 20260506142036 | 15 | 263 | 1.6 | 4.8 | 0.00 | 0.00 | 0.00 | 90 | 1008.8 |
| 20260506141548 | 15 | 226 | 1.6 | 6.4 | 0.00 | 0.00 | 0.00 | 90 | 1008.5 |
| 20260506141037 | 15 | 248 | 3.2 | 6.4 | 0.00 | 0.00 | 0.00 | 90 | 1008.4 |
| 20260506140535 | 15 | 173 | 3.2 | 8.0 | 0.00 | 0.00 | 0.00 | 90 | 1008.2 |
| 20260506140049 | 15 | 213 | 3.2 | 8.0 | 0.00 | 0.00 | 0.00 | 90 | 1008.2 |
| 20260506135536 | 15 | 207 | 3.2 | 8.0 | 0.00 | 0.00 | 0.00 | 90 | 1008.1 |
| 20260506135036 | 15 | 216 | 3.2 | 6.4 | 0.00 | 0.00 | 0.00 | 89 | 1008.1 |
| 20260506134546 | 15 | 211 | 3.2 | 6.4 | 0.00 | 0.00 | 0.00 | 89 | 1008.1 |
| 20260506134033 | 15 | 231 | 3.2 | 6.4 | 0.00 | 0.00 | 0.00 | 89 | 1008.1 |
| 20260506133534 | 15 | 215 | 3.2 | 4.8 | 0.00 | 0.00 | 0.00 | 88 | 1008.1 |
| 20260506133059 | 15 | 241 | 3.2 | 6.4 | 0.00 | 0.00 | 0.00 | 88 | 1008.4 |
| 20260506132536 | 15 | 229 | 1.6 | 8.0 | 0.00 | 0.00 | 0.00 | 87 | 1008.3 |
| 20260506132036 | 16 | 277 | 3.2 | 8.0 | 0.00 | 0.00 | 0.00 | 87 | 1008.3 |
| 20260506131553 | 16 | 184 | 3.2 | 8.0 | 0.00 | 0.00 | 0.00 | 87 | 1008.3 |
| 20260506131036 | 16 | 211 | 4.8 | 8.0 | 0.00 | 0.00 | 0.00 | 86 | 1008.2 |
| 20260506130537 | 16 | 209 | 3.2 | 6.4 | 0.00 | 0.00 | 0.00 | 86 | 1008.2 |
| 20260506130047 | 16 | 213 | 3.2 | 8.0 | 0.00 | 0.00 | 0.00 | 86 | 1008.2 |
| 20260506125536 | 16 | 241 | 4.8 | 8.0 | 0.00 | 0.00 | 0.00 | 85 | 1008.2 |
| 20260506125036 | 16 | 238 | 3.2 | 6.4 | 0.00 | 0.00 | 0.00 | 85 | 1008.3 |
| 20260506124545 | 16 | 213 | 3.2 | 4.8 | 0.00 | 0.00 | 0.00 | 85 | 1008.3 |
| 20260506124036 | 16 | 238 | 3.2 | 6.4 | 0.00 | 0.00 | 0.00 | 84 | 1008.3 |
| 20260506123540 | 16 | 245 | 1.6 | 6.4 | 0.00 | 0.00 | 0.00 | 84 | 1008.3 |
| 20260506123049 | 16 | 214 | 3.2 | 6.4 | 0.00 | 0.00 | 0.00 | 82 | 1008.3 |
| 20260506122535 | 16 | 246 | 1.6 | 6.4 | 0.00 | 0.00 | 0.00 | 82 | 1008.4 |
| 20260506122035 | 16 | 226 | 1.6 | 6.4 | 0.00 | 0.00 | 0.00 | 81 | 1008.6 |
| 20260506121554 | 16 | 238 | 1.6 | 12.9 | 0.00 | 0.00 | 0.00 | 80 | 1008.6 |
| 20260506121035 | 16 | 0 | 3.2 | 12.9 | 0.00 | 0.00 | 0.00 | 79 | 1008.7 |
| 20260506120537 | 17 | 273 | 3.2 | 8.0 | 0.00 | 0.00 | 0.00 | 79 | 1008.9 |
| 20260506120059 | 17 | 322 | 1.6 | 6.4 | 0.00 | 0.00 | 0.00 | 78 | 1008.8 |
| 20260506115536 | 17 | 275 | 0.0 | 4.8 | 0.00 | 0.00 | 0.00 | 77 | 1008.8 |
| 20260506115034 | 17 | 152 | 1.6 | 3.2 | 0.00 | 0.00 | 0.00 | 75 | 1008.7 |
| 20260506114546 | 17 | 238 | 1.6 | 4.8 | 0.00 | 0.00 | 0.00 | 75 | 1008.6 |
| 20260506114035 | 17 | 240 | 1.6 | 4.8 | 0.00 | 0.00 | 0.00 | 73 | 1008.5 |
| 20260506113534 | 17 | 252 | 0.0 | 4.8 | 0.00 | 0.00 | 0.00 | 72 | 1008.3 |
| 20260506113046 | 17 | 323 | 0.0 | 9.7 | 0.00 | 0.00 | 0.00 | 72 | 1008.1 |
| 20260506112536 | 18 | 215 | 3.2 | 9.7 | 0.00 | 0.00 | 0.00 | 70 | 1008.1 |
| 20260506112034 | 18 | 349 | 1.6 | 8.0 | 0.00 | 0.00 | 0.00 | 69 | 1008.2 |
| 20260506111546 | 18 | 224 | 3.2 | 8.0 | 0.00 | 0.00 | 0.00 | 68 | 1008.1 |
| 20260506111034 | 18 | 273 | 1.6 | 9.7 | 0.00 | 0.00 | 0.00 | 67 | 1008.1 |
| 20260506110534 | 18 | 298 | 1.6 | 19.3 | 0.00 | 0.00 | 0.00 | 66 | 1008.0 |
| 20260506110100 | 18 | 189 | 4.8 | 19.3 | 0.00 | 0.00 | 0.00 | 64 | 1007.9 |
| 20260506105534 | 18 | 182 | 1.6 | 9.7 | 0.00 | 0.00 | 0.00 | 63 | 1007.8 |
| 20260506105034 | 18 | 222 | 4.8 | 9.7 | 0.00 | 0.00 | 0.00 | 62 | 1007.8 |
| 20260506104558 | 18 | 230 | 3.2 | 11.3 | 0.00 | 0.00 | 0.00 | 63 | 1007.8 |
| 20260506104036 | 18 | 252 | 4.8 | 9.7 | 0.00 | 0.00 | 0.00 | 63 | 1007.8 |
| 20260506103534 | 18 | 203 | 3.2 | 8.0 | 0.00 | 0.00 | 0.00 | 62 | 1007.7 |
| 20260506103048 | 18 | 196 | 4.8 | 8.0 | 0.00 | 0.00 | 0.00 | 62 | 1007.6 |
| 20260506102536 | 18 | 235 | 3.2 | 9.7 | 0.00 | 0.00 | 0.00 | 62 | 1007.5 |
| 20260506102034 | 19 | 246 | 3.2 | 9.7 | 0.00 | 0.00 | 0.00 | 62 | 1007.5 |
| 20260506101549 | 19 | 234 | 4.8 | 9.7 | 0.00 | 0.00 | 0.00 | 62 | 1007.4 |
| 20260506101034 | 18 | 246 | 3.2 | 9.7 | 0.00 | 0.00 | 0.00 | 62 | 1007.2 |
| 20260506100534 | 19 | 261 | 4.8 | 11.3 | 0.00 | 0.00 | 0.00 | 62 | 1007.2 |
| 20260506100053 | 19 | 192 | 4.8 | 11.3 | 0.00 | 0.00 | 0.00 | 61 | 1007.2 |
| 20260506095557 | 19 | 250 | 3.2 | 9.7 | 0.00 | 0.00 | 0.00 | 61 | 1007.2 |
| 20260506095035 | 19 | 222 | 4.8 | 11.3 | 0.00 | 0.00 | 0.00 | 61 | 1007.0 |
| 20260506094556 | 19 | 175 | 3.2 | 11.3 | 0.00 | 0.00 | 0.00 | 60 | 1007.1 |
| 20260506094034 | 19 | 238 | 3.2 | 8.0 | 0.00 | 0.00 | 0.00 | 60 | 1007.2 |
| 20260506093534 | 19 | 223 | 1.6 | 8.0 | 0.00 | 0.00 | 0.00 | 60 | 1007.2 |
| 20260506093047 | 19 | 225 | 3.2 | 8.0 | 0.00 | 0.00 | 0.00 | 59 | 1007.3 |
| 20260506092534 | 19 | 237 | 1.6 | 9.7 | 0.00 | 0.00 | 0.00 | 59 | 1007.3 |
| 20260506092036 | 20 | 228 | 3.2 | 9.7 | 0.00 | 0.00 | 0.00 | 58 | 1007.4 |
| 20260506091546 | 20 | 207 | 1.6 | 14.5 | 0.00 | 0.00 | 0.00 | 58 | 1007.3 |
| 20260506091034 | 20 | 245 | 6.4 | 14.5 | 0.00 | 0.00 | 0.00 | 57 | 1007.4 |
| 20260506090534 | 20 | 270 | 3.2 | 12.9 | 0.00 | 0.00 | 0.00 | 57 | 1007.4 |
| 20260506090047 | 20 | 250 | 3.2 | 12.9 | 0.00 | 0.00 | 0.00 | 57 | 1007.7 |
| 20260506085536 | 20 | 261 | 1.6 | 9.7 | 0.00 | 0.00 | 0.00 | 57 | 1007.7 |
| 20260506085036 | 20 | 236 | 3.2 | 6.4 | 0.00 | 0.00 | 0.00 | 57 | 1007.7 |
| 20260506084615 | 20 | 206 | 1.6 | 19.3 | 0.00 | 0.00 | 0.00 | 56 | 1007.6 |
| 20260506084037 | 20 | 360 | 3.2 | 19.3 | 0.00 | 0.00 | 0.00 | 56 | 1007.6 |
| 20260506083537 | 20 | 273 | 1.6 | 8.0 | 0.00 | 0.00 | 0.00 | 56 | 1007.6 |
| 20260506083045 | 20 | 254 | 1.6 | 14.5 | 0.00 | 0.00 | 0.00 | 55 | 1007.6 |
| 20260506082536 | 20 | 256 | 3.2 | 14.5 | 0.00 | 0.00 | 0.00 | 55 | 1007.6 |
| 20260506082036 | 20 | 256 | 4.8 | 12.9 | 0.00 | 0.00 | 0.00 | 55 | 1007.4 |
| 20260506081551 | 20 | 183 | 1.6 | 14.5 | 0.00 | 0.00 | 0.00 | 55 | 1007.6 |
| 20260506081036 | 20 | 202 | 3.2 | 14.5 | 0.00 | 0.00 | 0.00 | 55 | 1007.4 |
| 20260506080536 | 20 | 225 | 6.4 | 14.5 | 0.00 | 0.00 | 0.00 | 55 | 1007.3 |
| 20260506073048 | 20 | 250 | 1.6 | 9.7 | 0.00 | 0.00 | 0.00 | 53 | 1007.5 |
| 20260506072537 | 20 | 242 | 4.8 | 17.7 | 0.00 | 0.00 | 0.00 | 53 | 1007.6 |
| 20260506072037 | 20 | 247 | 4.8 | 17.7 | 0.00 | 0.00 | 0.00 | 53 | 1007.7 |
| 20260506071548 | 20 | 231 | 4.8 | 17.7 | 0.00 | 0.00 | 0.00 | 53 | 1007.8 |
| 20260506071036 | 20 | 274 | 3.2 | 12.9 | 0.00 | 0.00 | 0.00 | 52 | 1007.7 |